| time (UTC) | temp C | wind direction | speed KPH | gust KPH | rain 1hr cm | rain 24hr cm | rain mn cm | humidity % | barometer mb |
| 20260504232100 | 10 | 186 | 11.3 | 22.5 | 0.00 | 0.00 | 0.00 | 84 | 1011.7 |
| 20260504231558 | 11 | 203 | 11.3 | 22.5 | 0.00 | 0.00 | 0.00 | 83 | 1011.7 |
| 20260504231057 | 11 | 182 | 11.3 | 25.7 | 0.00 | 0.00 | 0.00 | 83 | 1011.8 |
| 20260504230557 | 11 | 181 | 12.9 | 25.7 | 0.00 | 0.00 | 0.00 | 83 | 1011.7 |
| 20260504230106 | 11 | 195 | 12.9 | 24.1 | 0.00 | 0.00 | 0.00 | 82 | 1011.8 |
| 20260504225557 | 11 | 175 | 11.3 | 22.5 | 0.00 | 0.00 | 0.00 | 82 | 1011.8 |
| 20260504225056 | 11 | 196 | 12.9 | 27.4 | 0.00 | 0.00 | 0.00 | 81 | 1011.8 |
| 20260504224604 | 11 | 163 | 12.9 | 29.0 | 0.00 | 0.00 | 0.00 | 81 | 1011.8 |
| 20260504224057 | 11 | 162 | 14.5 | 30.6 | 0.00 | 0.00 | 0.00 | 80 | 1011.9 |
| 20260504223557 | 11 | 183 | 14.5 | 30.6 | 0.00 | 0.00 | 0.00 | 80 | 1012.0 |
| 20260504223103 | 11 | 163 | 19.3 | 29.0 | 0.00 | 0.00 | 0.00 | 80 | 1011.9 |
| 20260504222558 | 11 | 162 | 14.5 | 25.7 | 0.00 | 0.00 | 0.00 | 79 | 1011.9 |
| 20260504222058 | 11 | 165 | 14.5 | 25.7 | 0.00 | 0.00 | 0.00 | 79 | 1011.9 |
| 20260504221603 | 11 | 163 | 14.5 | 24.1 | 0.00 | 0.00 | 0.00 | 79 | 1011.9 |
| 20260504221057 | 12 | 194 | 14.5 | 22.5 | 0.00 | 0.00 | 0.00 | 79 | 1012.0 |
| 20260504220557 | 12 | 161 | 12.9 | 22.5 | 0.00 | 0.00 | 0.00 | 79 | 1012.0 |
| 20260504220103 | 12 | 143 | 12.9 | 20.9 | 0.00 | 0.00 | 0.00 | 78 | 1011.9 |
| 20260504215600 | 11 | 160 | 11.3 | 25.7 | 0.00 | 0.00 | 0.00 | 79 | 1012.0 |
| 20260504215057 | 11 | 161 | 14.5 | 27.4 | 0.00 | 0.00 | 0.00 | 78 | 1012.1 |
| 20260504214558 | 12 | 142 | 11.3 | 27.4 | 0.00 | 0.00 | 0.00 | 78 | 1012.1 |
| 20260504214057 | 12 | 158 | 17.7 | 27.4 | 0.00 | 0.00 | 0.00 | 78 | 1012.0 |
| 20260504213557 | 12 | 152 | 16.1 | 27.4 | 0.00 | 0.00 | 0.00 | 78 | 1011.9 |
| 20260504213109 | 12 | 184 | 17.7 | 29.0 | 0.00 | 0.00 | 0.00 | 77 | 1011.9 |
| 20260504212557 | 12 | 152 | 17.7 | 29.0 | 0.00 | 0.00 | 0.00 | 78 | 1012.0 |
| 20260504212100 | 12 | 232 | 16.1 | 27.4 | 0.00 | 0.00 | 0.00 | 76 | 1012.0 |
| 20260504211607 | 12 | 164 | 16.1 | 29.0 | 0.00 | 0.00 | 0.00 | 76 | 1012.0 |
| 20260504211057 | 12 | 162 | 17.7 | 30.6 | 0.00 | 0.00 | 0.00 | 77 | 1012.0 |
| 20260504210600 | 12 | 171 | 19.3 | 30.6 | 0.00 | 0.00 | 0.00 | 76 | 1012.0 |
| 20260504210059 | 12 | 181 | 17.7 | 32.2 | 0.00 | 0.00 | 0.00 | 76 | 1012.0 |
| 20260504205558 | 12 | 211 | 17.7 | 32.2 | 0.00 | 0.00 | 0.00 | 77 | 1011.9 |
| 20260504205058 | 12 | 177 | 20.9 | 30.6 | 0.00 | 0.00 | 0.00 | 76 | 1012.0 |
| 20260504204604 | 12 | 186 | 17.7 | 35.4 | 0.00 | 0.00 | 0.00 | 76 | 1011.9 |
| 20260504204057 | 12 | 186 | 22.5 | 35.4 | 0.00 | 0.00 | 0.00 | 76 | 1011.9 |
| 20260504203600 | 12 | 156 | 19.3 | 32.2 | 0.00 | 0.00 | 0.00 | 75 | 1011.8 |
| 20260504203115 | 12 | 178 | 20.9 | 30.6 | 0.00 | 0.00 | 0.00 | 76 | 1011.8 |
| 20260504202557 | 12 | 184 | 20.9 | 38.6 | 0.00 | 0.00 | 0.00 | 76 | 1011.7 |
| 20260504202056 | 12 | 152 | 25.7 | 38.6 | 0.00 | 0.00 | 0.00 | 75 | 1011.7 |
| 20260504201601 | 12 | 150 | 22.5 | 37.0 | 0.00 | 0.00 | 0.00 | 75 | 1011.8 |
| 20260504201102 | 12 | 161 | 24.1 | 37.0 | 0.00 | 0.00 | 0.00 | 75 | 1011.9 |
| 20260504200558 | 12 | 182 | 24.1 | 37.0 | 0.00 | 0.00 | 0.00 | 74 | 1012.1 |
| 20260504200104 | 12 | 144 | 19.3 | 35.4 | 0.00 | 0.00 | 0.00 | 74 | 1012.2 |
| 20260504195558 | 12 | 172 | 22.5 | 35.4 | 0.00 | 0.00 | 0.00 | 74 | 1012.2 |
| 20260504195058 | 12 | 159 | 20.9 | 32.2 | 0.00 | 0.00 | 0.00 | 74 | 1012.1 |
| 20260504194557 | 12 | 161 | 22.5 | 37.0 | 0.00 | 0.00 | 0.00 | 74 | 1012.2 |
| 20260504194058 | 12 | 172 | 20.9 | 37.0 | 0.00 | 0.00 | 0.00 | 73 | 1012.3 |
| 20260504193558 | 12 | 170 | 24.1 | 37.0 | 0.00 | 0.00 | 0.00 | 73 | 1012.2 |
| 20260504193100 | 13 | 146 | 19.3 | 32.2 | 0.00 | 0.00 | 0.00 | 73 | 1012.3 |
| 20260504192559 | 13 | 163 | 19.3 | 30.6 | 0.00 | 0.00 | 0.00 | 72 | 1012.2 |
| 20260504192057 | 12 | 168 | 19.3 | 32.2 | 0.00 | 0.00 | 0.00 | 72 | 1012.2 |
| 20260504191611 | 13 | 178 | 19.3 | 37.0 | 0.00 | 0.00 | 0.00 | 72 | 1012.2 |
| 20260504191057 | 12 | 169 | 20.9 | 37.0 | 0.00 | 0.00 | 0.00 | 74 | 1012.4 |
| 20260504190559 | 12 | 193 | 25.7 | 37.0 | 0.00 | 0.00 | 0.00 | 73 | 1012.4 |
| 20260504190121 | 12 | 169 | 22.5 | 37.0 | 0.00 | 0.00 | 0.00 | 73 | 1012.5 |
| 20260504185557 | 12 | 160 | 24.1 | 37.0 | 0.00 | 0.00 | 0.00 | 75 | 1012.5 |
| 20260504185057 | 12 | 196 | 20.9 | 37.0 | 0.00 | 0.00 | 0.00 | 72 | 1012.6 |
| 20260504184605 | 12 | 161 | 19.3 | 45.1 | 0.00 | 0.00 | 0.00 | 74 | 1012.6 |
| 20260504184057 | 12 | 165 | 22.5 | 45.1 | 0.00 | 0.00 | 0.00 | 73 | 1012.8 |
| 20260504183600 | 12 | 163 | 25.7 | 40.2 | 0.00 | 0.00 | 0.00 | 73 | 1012.9 |
| 20260504183105 | 12 | 173 | 24.1 | 40.2 | 0.00 | 0.00 | 0.00 | 74 | 1012.8 |
| 20260504182556 | 12 | 157 | 20.9 | 40.2 | 0.00 | 0.00 | 0.00 | 73 | 1012.8 |
| 20260504182059 | 12 | 162 | 24.1 | 38.6 | 0.00 | 0.00 | 0.00 | 73 | 1012.8 |
| 20260504181600 | 12 | 181 | 22.5 | 37.0 | 0.00 | 0.00 | 0.00 | 73 | 1012.8 |
| 20260504181057 | 13 | 192 | 19.3 | 32.2 | 0.00 | 0.00 | 0.00 | 73 | 1012.9 |
| 20260504180557 | 12 | 178 | 19.3 | 37.0 | 0.00 | 0.00 | 0.00 | 73 | 1012.9 |
| 20260504180112 | 12 | 167 | 20.9 | 38.6 | 0.00 | 0.00 | 0.00 | 74 | 1013.0 |
| 20260504175559 | 12 | 183 | 22.5 | 38.6 | 0.00 | 0.05 | 0.00 | 74 | 1013.0 |
| 20260504175057 | 12 | 184 | 19.3 | 30.6 | 0.00 | 0.05 | 0.00 | 73 | 1013.1 |
| 20260504174557 | 13 | 157 | 17.7 | 30.6 | 0.00 | 0.05 | 0.00 | 73 | 1013.1 |
| 20260504174057 | 13 | 178 | 14.5 | 29.0 | 0.00 | 0.05 | 0.00 | 74 | 1013.3 |
| 20260504173555 | 13 | 160 | 14.5 | 32.2 | 0.00 | 0.05 | 0.00 | 74 | 1013.3 |
| 20260504173057 | 13 | 163 | 14.5 | 32.2 | 0.00 | 0.05 | 0.00 | 73 | 1013.4 |
| 20260504172555 | 12 | 191 | 17.7 | 29.0 | 0.00 | 0.05 | 0.00 | 73 | 1013.4 |
| 20260504172056 | 12 | 187 | 16.1 | 29.0 | 0.00 | 0.05 | 0.00 | 75 | 1013.5 |
| 20260504171557 | 13 | 165 | 12.9 | 27.4 | 0.00 | 0.05 | 0.00 | 76 | 1013.5 |
| 20260504171059 | 12 | 197 | 17.7 | 27.4 | 0.00 | 0.05 | 0.00 | 76 | 1013.5 |
| 20260504170556 | 12 | 205 | 17.7 | 33.8 | 0.00 | 0.05 | 0.00 | 76 | 1013.6 |
| 20260504151059 | 12 | 202 | 20.9 | 30.6 | 0.00 | 0.05 | 0.00 | 72 | 1014.3 |
| 20260504150557 | 12 | 184 | 14.5 | 35.4 | 0.00 | 0.05 | 0.00 | 72 | 1014.4 |
| 20260504141059 | 12 | 190 | 17.7 | 33.8 | 0.00 | 0.05 | 0.00 | 71 | 1014.6 |
| 20260504140556 | 12 | 157 | 14.5 | 32.2 | 0.00 | 0.05 | 0.00 | 70 | 1014.6 |
| 20260504130557 | 12 | 200 | 14.5 | 29.0 | 0.00 | 0.05 | 0.00 | 69 | 1015.0 |
| 20260504110558 | 10 | 186 | 12.9 | 22.5 | 0.00 | 0.05 | 0.00 | 74 | 1014.8 |
| 20260504100558 | 10 | 163 | 9.7 | 19.3 | 0.00 | 0.05 | 0.00 | 78 | 1014.5 |
| 20260504081556 | 10 | 188 | 9.7 | 20.9 | 0.00 | 0.05 | 0.00 | 74 | 1013.9 |
| 20260504081057 | 10 | 184 | 12.9 | 20.9 | 0.00 | 0.05 | 0.00 | 74 | 1013.9 |
| 20260504080557 | 10 | 206 | 11.3 | 20.9 | 0.00 | 0.05 | 0.00 | 74 | 1013.9 |
| 20260504050558 | 10 | 190 | 4.8 | 12.9 | 0.00 | 0.05 | 0.00 | 73 | 1013.2 |
| 20260504050105 | 10 | 184 | 6.4 | 14.5 | 0.00 | 0.05 | 0.00 | 74 | 1013.1 |
| 20260504045558 | 10 | 236 | 4.8 | 16.1 | 0.00 | 0.05 | 0.00 | 74 | 1013.2 |
| 20260504045059 | 10 | 214 | 8.0 | 16.1 | 0.00 | 0.05 | 0.00 | 73 | 1013.3 |
| 20260504044601 | 10 | 226 | 6.4 | 16.1 | 0.00 | 0.05 | 0.00 | 72 | 1013.3 |
| 20260504044059 | 10 | 230 | 6.4 | 22.5 | 0.00 | 0.05 | 0.00 | 71 | 1013.3 |
| 20260504043559 | 10 | 199 | 9.7 | 22.5 | 0.00 | 0.05 | 0.00 | 70 | 1013.2 |
| 20260504043059 | 10 | 188 | 11.3 | 19.3 | 0.00 | 0.05 | 0.00 | 71 | 1013.2 |
| 20260504042559 | 10 | 187 | 8.0 | 19.3 | 0.00 | 0.05 | 0.00 | 72 | 1013.1 |
| 20260504042059 | 10 | 184 | 9.7 | 19.3 | 0.00 | 0.05 | 0.00 | 72 | 1013.1 |
| 20260504041601 | 10 | 181 | 8.0 | 16.1 | 0.00 | 0.05 | 0.00 | 73 | 1013.1 |
| 20260504041056 | 10 | 150 | 8.0 | 16.1 | 0.00 | 0.05 | 0.00 | 74 | 1013.0 |
| 20260504040556 | 10 | 192 | 6.4 | 16.1 | 0.00 | 0.05 | 0.00 | 74 | 1013.0 |
| 20260504040057 | 10 | 193 | 6.4 | 16.1 | 0.00 | 0.05 | 0.00 | 74 | 1013.0 |
| 20260504035556 | 10 | 188 | 6.4 | 16.1 | 0.00 | 0.05 | 0.05 | 75 | 1013.1 |
| 20260504035056 | 9 | 180 | 3.2 | 9.7 | 0.00 | 0.05 | 0.05 | 76 | 1013.0 |
| 20260504034600 | 9 | 190 | 3.2 | 9.7 | 0.00 | 0.05 | 0.05 | 76 | 1013.1 |
| 20260504034059 | 9 | 204 | 1.6 | 11.3 | 0.00 | 0.05 | 0.05 | 74 | 1013.0 |
| 20260504033557 | 9 | 0 | 3.2 | 11.3 | 0.00 | 0.05 | 0.05 | 73 | 1013.0 |
| 20260504033057 | 9 | 199 | 3.2 | 12.9 | 0.00 | 0.05 | 0.05 | 73 | 1012.9 |
| 20260504032557 | 9 | 200 | 4.8 | 12.9 | 0.00 | 0.05 | 0.05 | 72 | 1012.9 |
| 20260504032058 | 9 | 196 | 6.4 | 16.1 | 0.00 | 0.05 | 0.05 | 72 | 1012.9 |
| 20260504031557 | 8 | 182 | 8.0 | 16.1 | 0.00 | 0.05 | 0.05 | 73 | 1012.9 |
| 20260504031056 | 8 | 174 | 0.0 | 6.4 | 0.00 | 0.05 | 0.05 | 73 | 1012.9 |
| 20260504030556 | 8 | 196 | 3.2 | 6.4 | 0.00 | 0.05 | 0.05 | 73 | 1012.8 |
| 20260504030056 | 7 | 199 | 1.6 | 4.8 | 0.00 | 0.05 | 0.05 | 72 | 1012.9 |
| 20260504025557 | 6 | 229 | 0.0 | 0.0 | 0.00 | 0.05 | 0.05 | 72 | 1012.9 |
| 20260504025059 | 6 | 0 | 0.0 | 0.0 | 0.00 | 0.05 | 0.05 | 70 | 1012.9 |
| 20260504024616 | 5 | 0 | 0.0 | 0.0 | 0.00 | 0.05 | 0.05 | 70 | 1012.8 |
| 20260504024056 | 5 | 0 | 0.0 | 0.0 | 0.00 | 0.05 | 0.05 | 69 | 1012.9 |
| 20260504023556 | 5 | 0 | 0.0 | 0.0 | 0.00 | 0.05 | 0.05 | 68 | 1012.9 |
| 20260504023058 | 5 | 0 | 0.0 | 0.0 | 0.00 | 0.05 | 0.05 | 67 | 1012.8 |
| 20260504022602 | 5 | 0 | 0.0 | 0.0 | 0.00 | 0.05 | 0.05 | 66 | 1012.7 |
| 20260504022059 | 5 | 0 | 0.0 | 0.0 | 0.00 | 0.05 | 0.05 | 66 | 1012.7 |
| 20260504021557 | 6 | 0 | 0.0 | 0.0 | 0.00 | 0.05 | 0.05 | 66 | 1012.7 |
| 20260504021102 | 6 | 0 | 0.0 | 0.0 | 0.00 | 0.05 | 0.05 | 66 | 1012.7 |
| 20260504020557 | 6 | 0 | 0.0 | 0.0 | 0.00 | 0.05 | 0.05 | 64 | 1012.8 |
| 20260504020057 | 6 | 0 | 0.0 | 0.0 | 0.00 | 0.05 | 0.05 | 64 | 1012.7 |
| 20260504015557 | 6 | 0 | 0.0 | 0.0 | 0.00 | 0.05 | 0.05 | 64 | 1012.7 |
| 20260504015057 | 6 | 0 | 0.0 | 0.0 | 0.00 | 0.05 | 0.05 | 63 | 1012.6 |
| 20260504014604 | 7 | 0 | 0.0 | 0.0 | 0.00 | 0.05 | 0.05 | 62 | 1012.7 |
| 20260504014058 | 7 | 0 | 0.0 | 0.0 | 0.00 | 0.05 | 0.05 | 64 | 1012.6 |
| 20260504013556 | 7 | 0 | 0.0 | 0.0 | 0.00 | 0.05 | 0.05 | 62 | 1012.5 |
| 20260504013058 | 7 | 0 | 0.0 | 0.0 | 0.00 | 0.05 | 0.05 | 62 | 1012.4 |
| 20260504012557 | 7 | 0 | 0.0 | 0.0 | 0.00 | 0.05 | 0.05 | 63 | 1012.4 |
| 20260504012058 | 8 | 0 | 0.0 | 1.6 | 0.00 | 0.05 | 0.05 | 63 | 1012.4 |
| 20260504011559 | 8 | 0 | 0.0 | 1.6 | 0.00 | 0.05 | 0.05 | 61 | 1012.3 |
| 20260504011058 | 8 | 0 | 0.0 | 0.0 | 0.00 | 0.05 | 0.05 | 59 | 1012.2 |
| 20260504010559 | 8 | 0 | 0.0 | 0.0 | 0.00 | 0.05 | 0.05 | 57 | 1012.2 |
| 20260504010105 | 8 | 0 | 0.0 | 0.0 | 0.00 | 0.05 | 0.05 | 56 | 1012.1 |
| 20260504005559 | 8 | 0 | 0.0 | 0.0 | 0.00 | 0.05 | 0.05 | 55 | 1012.1 |
| 20260504005059 | 8 | 0 | 0.0 | 0.0 | 0.00 | 0.05 | 0.05 | 49 | 1012.0 |
| 20260504004600 | 9 | 0 | 0.0 | 0.0 | 0.00 | 0.05 | 0.05 | 50 | 1011.9 |
| 20260504004058 | 9 | 0 | 0.0 | 0.0 | 0.00 | 0.05 | 0.05 | 45 | 1011.8 |
| 20260504003557 | 9 | 0 | 0.0 | 0.0 | 0.00 | 0.05 | 0.05 | 43 | 1011.8 |
| 20260504003100 | 10 | 0 | 0.0 | 0.0 | 0.00 | 0.05 | 0.05 | 44 | 1011.7 |
| 20260504002557 | 10 | 0 | 0.0 | 0.0 | 0.00 | 0.05 | 0.05 | 44 | 1011.6 |
| 20260504002057 | 10 | 0 | 0.0 | 0.0 | 0.00 | 0.05 | 0.05 | 39 | 1011.6 |
| 20260504001557 | 11 | 0 | 0.0 | 0.0 | 0.00 | 0.05 | 0.05 | 38 | 1011.6 |
| 20260504001057 | 11 | 0 | 0.0 | 0.0 | 0.00 | 0.05 | 0.05 | 38 | 1011.5 |
| 20260504000557 | 11 | 0 | 0.0 | 0.0 | 0.00 | 0.05 | 0.05 | 37 | 1011.5 |
| 20260504000139 | 11 | 0 | 0.0 | 0.0 | 0.00 | 0.05 | 0.05 | 38 | 1011.3 |
| 20260503235557 | 11 | 0 | 0.0 | 0.0 | 0.00 | 0.05 | 0.05 | 36 | 1011.3 |
| 20260503235056 | 11 | 0 | 0.0 | 0.0 | 0.00 | 0.05 | 0.05 | 36 | 1011.2 |
| 20260503234602 | 11 | 0 | 0.0 | 0.0 | 0.00 | 0.05 | 0.05 | 35 | 1011.1 |
| 20260503234101 | 12 | 0 | 0.0 | 6.4 | 0.00 | 0.05 | 0.05 | 35 | 1011.0 |
| 20260503233558 | 12 | 0 | 0.0 | 6.4 | 0.00 | 0.05 | 0.05 | 34 | 1011.1 |
| 20260503233101 | 12 | 0 | 0.0 | 8.0 | 0.00 | 0.05 | 0.05 | 35 | 1011.0 |
| 20260503232557 | 12 | 0 | 0.0 | 8.0 | 0.00 | 0.05 | 0.05 | 34 | 1011.0 |